Time,TemperatureF,DewpointF,PressureIn,WindDirection,WindDirectionDegrees,WindSpeedMPH,WindSpeedGustMPH,Humidity,HourlyPrecipIn,Conditions,Clouds,dailyrainin,SoftwareType,DateUTC
2013-03-01 00:00:00,29.6,25.1,30.00,North,9,1.0,10.0,83,0.00,,OVC025,0.10,VWS V14.00,2013-03-01 05:00:00,
2013-03-01 00:01:00,29.6,25.1,30.00,NNE,13,5.0,7.0,83,0.00,,OVC021,0.00,VWS V14.00,2013-03-01 05:01:00,
2013-03-01 00:06:00,29.5,25.0,30.00,NNE,21,6.0,9.0,83,0.00,,OVC021,0.00,VWS V14.00,2013-03-01 05:06:00,
2013-03-01 00:07:00,29.5,25.0,30.00,NNE,14,5.0,10.0,83,0.00,,OVC021,0.00,VWS V14.00,2013-03-01 05:07:00,
2013-03-01 00:12:00,29.4,24.9,30.00,NE,38,5.0,10.0,83,0.00,,OVC021,0.00,VWS V14.00,2013-03-01 05:12:00,
2013-03-01 00:17:00,29.3,24.8,30.00,NNE,17,3.0,10.0,83,0.00,,OVC021,0.00,VWS V14.00,2013-03-01 05:17:00,
2013-03-01 00:22:00,29.3,24.8,30.00,NNE,31,4.0,11.0,83,0.00,,OVC021,0.00,VWS V14.00,2013-03-01 05:22:00,
2013-03-01 00:28:00,29.3,24.8,30.00,NNE,28,5.0,11.0,83,0.00,,OVC021,0.00,VWS V14.00,2013-03-01 05:28:00,
2013-03-01 00:33:00,29.3,24.8,30.00,NE,45,4.0,8.0,83,0.00,,OVC021,0.00,VWS V14.00,2013-03-01 05:33:00,
2013-03-01 00:38:00,29.2,24.7,30.00,North,360,2.0,9.0,83,0.00,,OVC021,0.00,VWS V14.00,2013-03-01 05:38:00,
2013-03-01 00:43:00,29.2,24.7,30.00,NNE,26,2.0,9.0,83,0.00,,OVC021,0.00,VWS V14.00,2013-03-01 05:43:00,
2013-03-01 00:48:00,29.1,24.6,30.00,NE,50,2.0,9.0,83,0.00,,OVC021,0.00,VWS V14.00,2013-03-01 05:48:00,
2013-03-01 00:53:00,29.1,24.6,30.00,North,11,3.0,9.0,83,0.00,,OVC021,0.00,VWS V14.00,2013-03-01 05:53:00,
2013-03-01 00:58:00,29.1,24.6,30.00,North,360,2.0,9.0,83,0.00,,OVC021,0.00,VWS V14.00,2013-03-01 05:58:00,
2013-03-01 01:03:00,29.0,24.2,30.00,North,9,3.0,10.0,82,0.00,,OVC032,0.00,VWS V14.00,2013-03-01 06:03:00,
2013-03-01 01:08:00,29.0,24.2,30.00,North,355,4.0,10.0,82,0.00,,OVC032,0.00,VWS V14.00,2013-03-01 06:08:00,
2013-03-01 01:13:00,29.0,23.9,30.00,NNE,19,6.0,10.0,81,0.00,,OVC032,0.00,VWS V14.00,2013-03-01 06:13:00,
2013-03-01 01:18:00,29.0,23.9,30.00,North,5,3.0,10.0,81,0.00,,OVC032,0.00,VWS V14.00,2013-03-01 06:18:00,
2013-03-01 01:23:00,29.0,23.9,30.00,NNE,25,2.0,10.0,81,0.00,,OVC032,0.00,VWS V14.00,2013-03-01 06:23:00,
2013-03-01 01:28:00,29.0,23.9,30.00,NNE,25,5.0,10.0,81,0.00,,OVC032,0.00,VWS V14.00,2013-03-01 06:28:00,
2013-03-01 01:33:00,28.9,23.8,30.00,North,5,4.0,7.0,81,0.00,,OVC032,0.00,VWS V14.00,2013-03-01 06:33:00,
2013-03-01 01:39:00,28.9,23.8,30.00,NNE,17,10.0,10.0,81,0.00,,OVC032,0.00,VWS V14.00,2013-03-01 06:39:00,
2013-03-01 01:44:00,28.8,23.7,30.00,North,10,4.0,10.0,81,0.00,,OVC032,0.00,VWS V14.00,2013-03-01 06:44:00,
2013-03-01 01:49:00,28.8,23.7,30.00,NE,38,4.0,10.0,81,0.00,,OVC032,0.00,VWS V14.00,2013-03-01 06:49:00,
2013-03-01 01:54:00,28.8,23.7,30.00,NW,323,5.0,10.0,81,0.00,,OVC032,0.00,VWS V14.00,2013-03-01 06:54:00,
2013-03-01 01:59:00,28.7,23.3,30.00,NNE,19,3.0,10.0,80,0.00,,OVC032,0.00,VWS V14.00,2013-03-01 06:59:00,
2013-03-01 02:04:00,28.7,23.3,30.01,NNE,32,4.0,7.0,80,0.00,,OVC025,0.00,VWS V14.00,2013-03-01 07:04:00,
2013-03-01 02:09:00,28.7,23.6,30.01,NNE,28,7.0,7.0,81,0.00,,OVC025,0.00,VWS V14.00,2013-03-01 07:09:00,
2013-03-01 02:14:00,28.6,23.5,30.01,North,355,2.0,8.0,81,0.00,,OVC025,0.00,VWS V14.00,2013-03-01 07:14:00,
2013-03-01 02:19:00,28.5,23.1,30.01,NNE,19,3.0,9.0,80,0.00,,OVC025,0.00,VWS V14.00,2013-03-01 07:19:00,
2013-03-01 02:24:00,28.5,23.1,30.01,NE,43,2.0,9.0,80,0.00,,OVC025,0.00,VWS V14.00,2013-03-01 07:24:00,
2013-03-01 02:29:00,28.5,23.1,30.01,NE,42,1.0,9.0,80,0.00,,OVC025,0.00,VWS V14.00,2013-03-01 07:29:00,
2013-03-01 02:34:00,28.4,23.0,30.01,NE,35,2.0,4.0,80,0.00,,OVC025,0.00,VWS V14.00,2013-03-01 07:34:00,
2013-03-01 02:39:00,28.4,23.0,30.00,ENE,58,3.0,6.0,80,0.00,,OVC025,0.00,VWS V14.00,2013-03-01 07:39:00,
2013-03-01 02:45:00,28.4,23.0,30.00,NE,53,3.0,6.0,80,0.00,,OVC025,0.00,VWS V14.00,2013-03-01 07:45:00,
2013-03-01 02:50:00,28.4,23.0,30.00,NNE,29,3.0,6.0,80,0.00,,OVC025,0.00,VWS V14.00,2013-03-01 07:50:00,
2013-03-01 02:55:00,28.3,22.9,30.00,NNE,19,2.0,6.0,80,0.00,,OVC025,0.00,VWS V14.00,2013-03-01 07:55:00,
2013-03-01 03:00:00,28.3,22.9,30.00,NNE,15,2.0,9.0,80,0.00,,OVC025,0.00,VWS V14.00,2013-03-01 08:00:00,
2013-03-01 03:05:00,28.3,22.9,30.00,North,351,3.0,8.0,80,0.00,,OVC030,0.00,VWS V14.00,2013-03-01 08:05:00,
2013-03-01 03:10:00,28.3,22.9,30.01,NE,35,2.0,8.0,80,0.00,,OVC030,0.00,VWS V14.00,2013-03-01 08:10:00,
2013-03-01 03:15:00,28.2,22.8,30.00,NE,48,2.0,8.0,80,0.00,,OVC030,0.00,VWS V14.00,2013-03-01 08:15:00,
2013-03-01 03:20:00,28.1,22.4,30.00,NNE,24,6.0,8.0,79,0.00,,OVC030,0.00,VWS V14.00,2013-03-01 08:20:00,
2013-03-01 03:25:00,28.1,22.4,30.01,NE,39,3.0,8.0,79,0.00,,OVC030,0.00,VWS V14.00,2013-03-01 08:25:00,
2013-03-01 03:30:00,28.1,22.4,30.01,NE,50,2.0,8.0,79,0.00,,OVC030,0.00,VWS V14.00,2013-03-01 08:30:00,
2013-03-01 03:35:00,28.1,22.7,30.01,North,5,4.0,5.0,80,0.00,,OVC030,0.00,VWS V14.00,2013-03-01 08:35:00,
2013-03-01 03:40:00,28.1,22.4,30.01,NE,46,2.0,8.0,79,0.00,,OVC030,0.00,VWS V14.00,2013-03-01 08:40:00,
2013-03-01 03:45:00,28.0,22.6,30.01,North,355,4.0,8.0,80,0.00,,OVC030,0.00,VWS V14.00,2013-03-01 08:45:00,
2013-03-01 03:50:00,28.0,22.6,30.01,NE,36,3.0,8.0,80,0.00,,OVC030,0.00,VWS V14.00,2013-03-01 08:50:00,
2013-03-01 03:55:00,28.0,22.3,30.01,NNE,15,4.0,8.0,79,0.00,,OVC030,0.00,VWS V14.00,2013-03-01 08:55:00,
2013-03-01 04:00:00,28.0,22.3,30.01,North,9,1.0,8.0,79,0.00,,OVC030,0.00,VWS V14.00,2013-03-01 09:00:00,
2013-03-01 04:05:00,27.9,22.2,30.01,NE,40,3.0,5.0,79,0.00,,OVC045,0.00,VWS V14.00,2013-03-01 09:05:00,
2013-03-01 04:10:00,27.9,22.2,30.01,NNE,32,2.0,5.0,79,0.00,,OVC045,0.00,VWS V14.00,2013-03-01 09:10:00,
2013-03-01 04:15:00,27.9,22.5,30.01,NNE,17,2.0,5.0,80,0.00,,OVC045,0.00,VWS V14.00,2013-03-01 09:15:00,
2013-03-01 04:20:00,27.9,22.5,30.01,NNE,19,2.0,8.0,80,0.00,,OVC045,0.00,VWS V14.00,2013-03-01 09:20:00,
2013-03-01 04:25:00,27.9,22.5,30.01,NNE,18,3.0,8.0,80,0.00,,OVC045,0.00,VWS V14.00,2013-03-01 09:25:00,
2013-03-01 04:30:00,27.8,22.4,30.01,NNE,26,3.0,3.0,80,0.00,,OVC045,0.00,VWS V14.00,2013-03-01 09:30:00,
2013-03-01 04:35:00,27.8,22.4,30.01,NNE,26,3.0,4.0,80,0.00,,OVC045,0.00,VWS V14.00,2013-03-01 09:35:00,
2013-03-01 04:40:00,27.8,22.4,30.02,NNE,22,3.0,8.0,80,0.00,,OVC045,0.00,VWS V14.00,2013-03-01 09:40:00,
2013-03-01 04:45:00,27.8,22.4,30.02,North,349,4.0,8.0,80,0.00,,OVC045,0.00,VWS V14.00,2013-03-01 09:45:00,
2013-03-01 04:50:00,27.8,22.4,30.02,NNE,19,5.0,8.0,80,0.00,,OVC045,0.00,VWS V14.00,2013-03-01 09:50:00,
2013-03-01 04:56:00,27.7,22.4,30.02,NNE,22,4.0,9.0,80,0.00,,OVC045,0.00,VWS V14.00,2013-03-01 09:56:00,
2013-03-01 05:01:00,27.7,22.4,30.02,NNE,17,4.0,7.0,80,0.00,,OVC045,0.00,VWS V14.00,2013-03-01 10:01:00,
2013-03-01 05:06:00,27.7,22.4,30.02,NE,55,4.0,8.0,80,0.00,,OVC045,0.00,VWS V14.00,2013-03-01 10:06:00,
2013-03-01 05:11:00,27.6,22.0,30.02,NE,38,3.0,9.0,79,0.00,,OVC045,0.00,VWS V14.00,2013-03-01 10:11:00,
2013-03-01 05:16:00,27.6,22.0,30.03,North,9,3.0,9.0,79,0.00,,OVC045,0.00,VWS V14.00,2013-03-01 10:16:00,
2013-03-01 05:21:00,27.6,22.0,30.03,NE,44,3.0,9.0,79,0.00,,OVC045,0.00,VWS V14.00,2013-03-01 10:21:00,
2013-03-01 05:26:00,27.5,21.9,30.03,NE,34,5.0,10.0,79,0.00,,OVC045,0.00,VWS V14.00,2013-03-01 10:26:00,
2013-03-01 05:31:00,27.4,21.5,30.03,NE,53,5.0,11.0,78,0.00,,OVC045,0.00,VWS V14.00,2013-03-01 10:31:00,
2013-03-01 05:36:00,27.4,21.5,30.03,NNE,24,5.0,11.0,78,0.00,,OVC045,0.00,VWS V14.00,2013-03-01 10:36:00,
2013-03-01 05:41:00,27.3,21.4,30.03,NE,38,5.0,11.0,78,0.00,,OVC045,0.00,VWS V14.00,2013-03-01 10:41:00,
2013-03-01 05:46:00,27.2,21.3,30.03,NE,43,5.0,11.0,78,0.00,,OVC045,0.00,VWS V14.00,2013-03-01 10:46:00,
2013-03-01 05:51:00,27.1,21.2,30.03,NE,49,6.0,11.0,78,0.00,,OVC045,0.00,VWS V14.00,2013-03-01 10:51:00,
2013-03-01 05:56:00,27.0,21.4,30.03,NNE,15,1.0,11.0,79,0.00,,OVC045,0.00,VWS V14.00,2013-03-01 10:56:00,
2013-03-01 06:01:00,26.9,21.3,30.03,NNE,22,4.0,6.0,79,0.00,,OVC045,0.00,VWS V14.00,2013-03-01 11:01:00,
2013-03-01 06:06:00,26.7,21.1,30.04,NNE,13,3.0,6.0,79,0.00,,OVC045,0.00,VWS V14.00,2013-03-01 11:06:00,
2013-03-01 06:11:00,26.7,21.1,30.04,NE,39,3.0,7.0,79,0.00,,OVC045,0.00,VWS V14.00,2013-03-01 11:11:00,
2013-03-01 06:16:00,26.6,21.0,30.04,NNE,32,4.0,7.0,79,0.00,,OVC045,0.00,VWS V14.00,2013-03-01 11:16:00,
2013-03-01 06:22:00,26.6,21.0,30.04,NNE,30,9.0,9.0,79,0.00,,OVC045,0.00,VWS V14.00,2013-03-01 11:22:00,
2013-03-01 06:27:00,26.6,21.0,30.04,NE,36,4.0,9.0,79,0.00,,OVC045,0.00,VWS V14.00,2013-03-01 11:27:00,
2013-03-01 06:32:00,26.6,21.0,30.04,ENE,59,4.0,8.0,79,0.00,,OVC045,0.00,VWS V14.00,2013-03-01 11:32:00,
2013-03-01 06:37:00,26.5,21.2,30.04,NNE,29,6.0,8.0,80,0.00,,OVC045,0.00,VWS V14.00,2013-03-01 11:37:00,
2013-03-01 06:42:00,26.3,21.0,30.04,NNE,22,6.0,8.0,80,0.00,,OVC045,0.00,VWS V14.00,2013-03-01 11:42:00,
2013-03-01 06:47:00,26.2,20.9,30.04,NE,44,1.0,9.0,80,0.00,,OVC045,0.00,VWS V14.00,2013-03-01 11:47:00,
2013-03-01 06:52:00,26.2,20.9,30.05,ENE,71,3.0,9.0,80,0.00,,OVC045,0.00,VWS V14.00,2013-03-01 11:52:00,
2013-03-01 06:57:00,26.1,20.8,30.05,NE,51,4.0,9.0,80,0.00,,OVC045,0.00,VWS V14.00,2013-03-01 11:57:00,
2013-03-01 07:02:00,25.9,20.6,30.05,NE,46,3.0,7.0,80,0.00,,OVC045,0.00,VWS V14.00,2013-03-01 12:02:00,
2013-03-01 07:07:00,25.8,20.5,30.05,ENE,59,5.0,9.0,80,0.00,,OVC045,0.00,VWS V14.00,2013-03-01 12:07:00,
2013-03-01 07:12:00,25.7,20.4,30.05,NNE,33,3.0,9.0,80,0.00,,OVC045,0.00,VWS V14.00,2013-03-01 12:12:00,
2013-03-01 07:18:00,25.6,20.6,30.05,ENE,57,3.0,9.0,81,0.00,,OVC045,0.00,VWS V14.00,2013-03-01 12:18:00,
2013-03-01 07:23:00,25.5,20.5,30.06,ENE,61,1.0,9.0,81,0.00,,OVC045,0.00,VWS V14.00,2013-03-01 12:23:00,
2013-03-01 07:28:00,25.5,20.5,30.06,NE,51,4.0,9.0,81,0.00,,OVC045,0.00,VWS V14.00,2013-03-01 12:28:00,
2013-03-01 07:33:00,25.5,20.5,30.06,NE,47,3.0,5.0,81,0.00,,OVC045,0.00,VWS V14.00,2013-03-01 12:33:00,
2013-03-01 07:38:00,25.5,20.5,30.06,NNE,30,6.0,9.0,81,0.00,,OVC045,0.00,VWS V14.00,2013-03-01 12:38:00,
2013-03-01 07:43:00,25.4,20.4,30.07,ENE,61,3.0,9.0,81,0.00,,OVC045,0.00,VWS V14.00,2013-03-01 12:43:00,
2013-03-01 07:48:00,25.4,20.4,30.07,ENE,57,3.0,9.0,81,0.00,,OVC045,0.00,VWS V14.00,2013-03-01 12:48:00,
2013-03-01 07:53:00,25.4,20.4,30.07,NE,49,5.0,9.0,81,0.00,,OVC045,0.00,VWS V14.00,2013-03-01 12:53:00,
2013-03-01 07:58:00,25.4,20.4,30.07,ENE,58,3.0,9.0,81,0.00,,OVC045,0.00,VWS V14.00,2013-03-01 12:58:00,
2013-03-01 08:03:00,25.4,20.4,30.08,ENE,59,4.0,7.0,81,0.00,,OVC041,0.00,VWS V14.00,2013-03-01 13:03:00,
2013-03-01 08:08:00,25.4,20.4,30.08,NE,45,3.0,7.0,81,0.00,,OVC041,0.00,VWS V14.00,2013-03-01 13:08:00,
2013-03-01 08:13:00,25.3,20.0,30.08,NNE,22,7.0,10.0,80,0.00,,OVC041,0.00,VWS V14.00,2013-03-01 13:13:00,
2013-03-01 08:18:00,25.1,19.8,30.08,NNE,21,6.0,10.0,80,0.00,,OVC041,0.00,VWS V14.00,2013-03-01 13:18:00,
2013-03-01 08:24:00,24.9,19.6,30.08,NNE,29,4.0,10.0,80,0.00,,OVC041,0.00,VWS V14.00,2013-03-01 13:24:00,
2013-03-01 08:29:00,24.8,19.5,30.08,NE,35,4.0,10.0,80,0.00,,OVC041,0.00,VWS V14.00,2013-03-01 13:29:00,
2013-03-01 08:34:00,24.8,19.8,30.09,North,10,5.0,9.0,81,0.00,,OVC041,0.00,VWS V14.00,2013-03-01 13:34:00,
2013-03-01 08:39:00,24.8,19.5,30.09,NNE,26,5.0,12.0,80,0.00,,OVC041,0.00,VWS V14.00,2013-03-01 13:39:00,
2013-03-01 08:44:00,24.8,19.5,30.09,NE,46,7.0,12.0,80,0.00,,OVC041,0.00,VWS V14.00,2013-03-01 13:44:00,
2013-03-01 08:49:00,24.8,19.8,30.09,NNW,348,4.0,12.0,81,0.00,,OVC041,0.00,VWS V14.00,2013-03-01 13:49:00,
2013-03-01 08:54:00,24.9,19.6,30.09,NNW,342,10.0,12.0,80,0.00,,OVC041,0.00,VWS V14.00,2013-03-01 13:54:00,
2013-03-01 08:59:00,24.9,19.6,30.09,ENE,76,4.0,12.0,80,0.00,,OVC041,0.00,VWS V14.00,2013-03-01 13:59:00,
2013-03-01 09:04:00,24.9,19.6,30.09,NE,34,2.0,8.0,80,0.00,,BKN041,0.00,VWS V14.00,2013-03-01 14:04:00,
2013-03-01 09:09:00,24.9,19.6,30.09,NE,40,6.0,12.0,80,0.00,,BKN041,0.00,VWS V14.00,2013-03-01 14:09:00,
2013-03-01 09:14:00,24.9,19.6,30.10,NE,40,1.0,12.0,80,0.00,,BKN041,0.00,VWS V14.00,2013-03-01 14:14:00,
2013-03-01 09:19:00,24.9,19.6,30.10,ENE,69,4.0,12.0,80,0.00,,BKN041,0.00,VWS V14.00,2013-03-01 14:19:00,
2013-03-01 09:24:00,25.0,19.7,30.10,NE,50,4.0,12.0,80,0.00,,BKN041,0.00,VWS V14.00,2013-03-01 14:24:00,
2013-03-01 09:29:00,25.0,19.7,30.10,NNE,17,5.0,12.0,80,0.00,,BKN041,0.00,VWS V14.00,2013-03-01 14:29:00,
2013-03-01 09:34:00,24.9,19.6,30.10,North,360,5.0,9.0,80,0.00,,BKN041,0.00,VWS V14.00,2013-03-01 14:34:00,
2013-03-01 09:39:00,24.9,19.6,30.10,NE,41,3.0,9.0,80,0.00,,BKN041,0.00,VWS V14.00,2013-03-01 14:39:00,
2013-03-01 09:44:00,24.8,19.5,30.10,NNE,15,6.0,11.0,80,0.00,,BKN041,0.00,VWS V14.00,2013-03-01 14:44:00,
2013-03-01 09:49:00,24.6,19.3,30.10,NNE,24,5.0,12.0,80,0.00,,BKN041,0.00,VWS V14.00,2013-03-01 14:49:00,
2013-03-01 09:54:00,24.5,19.2,30.10,NNE,32,5.0,12.0,80,0.00,,BKN041,0.00,VWS V14.00,2013-03-01 14:54:00,
2013-03-01 09:59:00,24.5,19.2,30.10,NE,45,3.0,12.0,80,0.00,,BKN041,0.00,VWS V14.00,2013-03-01 14:59:00,
2013-03-01 10:05:00,24.5,19.2,30.10,NE,53,5.0,7.0,80,0.00,,BKN041,0.00,VWS V14.00,2013-03-01 15:05:00,
2013-03-01 10:10:00,24.8,19.8,30.10,ENE,71,5.0,9.0,81,0.00,,BKN041,0.00,VWS V14.00,2013-03-01 15:10:00,
2013-03-01 10:15:00,24.9,19.6,30.10,NE,37,2.0,9.0,80,0.00,,BKN041,0.00,VWS V14.00,2013-03-01 15:15:00,
2013-03-01 10:20:00,24.9,19.9,30.10,NE,49,5.0,9.0,81,0.00,,BKN041,0.00,VWS V14.00,2013-03-01 15:20:00,
2013-03-01 10:25:00,24.8,19.5,30.10,NE,56,2.0,9.0,80,0.00,,BKN041,0.00,VWS V14.00,2013-03-01 15:25:00,
2013-03-01 10:30:00,24.6,19.3,30.10,ENE,72,3.0,4.0,80,0.00,,BKN041,0.00,VWS V14.00,2013-03-01 15:30:00,
2013-03-01 10:35:00,24.5,19.2,30.10,NE,50,3.0,8.0,80,0.00,,BKN041,0.00,VWS V14.00,2013-03-01 15:35:00,
2013-03-01 10:40:00,24.5,19.2,30.11,ENE,58,4.0,8.0,80,0.00,,BKN041,0.00,VWS V14.00,2013-03-01 15:40:00,
2013-03-01 10:45:00,24.3,18.7,30.11,ENE,63,4.0,10.0,79,0.00,,BKN041,0.00,VWS V14.00,2013-03-01 15:45:00,
2013-03-01 10:50:00,24.2,18.6,30.11,North,10,6.0,10.0,79,0.00,,BKN041,0.00,VWS V14.00,2013-03-01 15:50:00,
2013-03-01 10:55:00,24.3,19.0,30.11,NE,49,6.0,10.0,80,0.00,,BKN041,0.00,VWS V14.00,2013-03-01 15:55:00,
2013-03-01 11:01:00,24.3,18.7,30.11,ENE,65,1.0,5.0,79,0.00,,BKN019,0.00,VWS V14.00,2013-03-01 16:01:00,
2013-03-01 11:06:00,24.5,18.9,30.11,ENE,68,2.0,7.0,79,0.00,,BKN019,0.00,VWS V14.00,2013-03-01 16:06:00,
2013-03-01 11:11:00,24.5,18.9,30.11,NE,51,4.0,10.0,79,0.00,,BKN019,0.00,VWS V14.00,2013-03-01 16:11:00,
2013-03-01 11:16:00,24.5,18.9,30.11,ENE,69,7.0,10.0,79,0.00,,BKN019,0.00,VWS V14.00,2013-03-01 16:16:00,
2013-03-01 11:21:00,24.4,18.8,30.11,North,355,7.0,10.0,79,0.00,,BKN019,0.00,VWS V14.00,2013-03-01 16:21:00,
2013-03-01 11:26:00,24.5,18.9,30.11,NE,52,3.0,10.0,79,0.00,,BKN019,0.00,VWS V14.00,2013-03-01 16:26:00,
2013-03-01 11:31:00,24.8,19.2,30.11,NE,40,2.0,8.0,79,0.00,,BKN019,0.00,VWS V14.00,2013-03-01 16:31:00,
2013-03-01 11:36:00,24.8,19.2,30.11,NNE,32,3.0,10.0,79,0.00,,BKN019,0.00,VWS V14.00,2013-03-01 16:36:00,
2013-03-01 11:41:00,25.0,19.1,30.11,East,88,2.0,10.0,78,0.00,,BKN019,0.00,VWS V14.00,2013-03-01 16:41:00,
2013-03-01 11:46:00,24.9,19.0,30.12,ENE,74,2.0,10.0,78,0.00,,BKN019,0.00,VWS V14.00,2013-03-01 16:46:00,
2013-03-01 11:51:00,24.8,18.9,30.12,NNE,21,7.0,10.0,78,0.00,,BKN019,0.00,VWS V14.00,2013-03-01 16:51:00,
2013-03-01 11:56:00,24.7,18.8,30.12,North,10,3.0,10.0,78,0.00,,BKN019,0.00,VWS V14.00,2013-03-01 16:56:00,
2013-03-01 12:01:00,24.7,19.1,30.12,NNE,30,3.0,8.0,79,0.00,,OVC019,0.00,VWS V14.00,2013-03-01 17:01:00,
2013-03-01 12:06:00,24.8,19.2,30.12,NE,42,6.0,11.0,79,0.00,,OVC019,0.00,VWS V14.00,2013-03-01 17:06:00,
2013-03-01 12:11:00,24.8,19.2,30.12,NE,44,4.0,11.0,79,0.00,,OVC019,0.00,VWS V14.00,2013-03-01 17:11:00,
2013-03-01 12:16:00,25.2,19.6,30.12,NE,47,3.0,11.0,79,0.00,,OVC019,0.00,VWS V14.00,2013-03-01 17:16:00,
2013-03-01 12:22:00,25.7,19.8,30.12,East,82,5.0,11.0,78,0.00,,OVC019,0.00,VWS V14.00,2013-03-01 17:22:00,
2013-03-01 12:27:00,25.4,19.2,30.12,East,80,3.0,11.0,77,0.00,,OVC019,0.00,VWS V14.00,2013-03-01 17:27:00,
2013-03-01 12:32:00,25.4,19.2,30.12,NNE,19,5.0,9.0,77,0.00,,OVC019,0.00,VWS V14.00,2013-03-01 17:32:00,
2013-03-01 12:37:00,25.5,19.6,30.12,NE,51,6.0,9.0,78,0.00,,OVC019,0.00,VWS V14.00,2013-03-01 17:37:00,
2013-03-01 12:42:00,25.6,19.7,30.12,NE,49,4.0,9.0,78,0.00,,OVC019,0.00,VWS V14.00,2013-03-01 17:42:00,
2013-03-01 12:47:00,25.5,19.6,30.12,NNE,32,1.0,9.0,78,0.00,,OVC019,0.00,VWS V14.00,2013-03-01 17:47:00,
2013-03-01 12:52:00,25.8,19.9,30.12,North,9,4.0,9.0,78,0.00,,OVC019,0.00,VWS V14.00,2013-03-01 17:52:00,
2013-03-01 12:57:00,25.8,19.3,30.12,ENE,67,0.0,9.0,76,0.00,,OVC019,0.00,VWS V14.00,2013-03-01 17:57:00,
2013-03-01 13:02:00,26.1,19.9,30.12,NE,46,4.0,7.0,77,0.00,,OVC019,0.00,VWS V14.00,2013-03-01 18:02:00,
2013-03-01 13:07:00,26.2,19.7,30.12,North,360,6.0,8.0,76,0.00,,OVC019,0.00,VWS V14.00,2013-03-01 18:07:00,
2013-03-01 13:12:00,26.2,19.7,30.12,NNE,22,9.0,9.0,76,0.00,,OVC019,0.00,VWS V14.00,2013-03-01 18:12:00,
2013-03-01 13:17:00,25.8,19.3,30.12,NE,51,5.0,11.0,76,0.00,,OVC019,0.00,VWS V14.00,2013-03-01 18:17:00,
2013-03-01 13:22:00,25.5,19.0,30.11,NNE,15,5.0,11.0,76,0.00,,OVC019,0.00,VWS V14.00,2013-03-01 18:22:00,
2013-03-01 13:27:00,25.5,19.0,30.12,NNE,21,4.0,11.0,76,0.00,,OVC019,0.00,VWS V14.00,2013-03-01 18:27:00,
2013-03-01 13:33:00,25.6,19.1,30.12,NNE,12,0.0,7.0,76,0.00,,OVC019,0.00,VWS V14.00,2013-03-01 18:33:00,
2013-03-01 13:38:00,26.1,19.9,30.11,NNE,13,5.0,7.0,77,0.00,,OVC019,0.00,VWS V14.00,2013-03-01 18:38:00,
2013-03-01 13:43:00,26.5,20.0,30.11,NNE,26,6.0,7.0,76,0.00,,OVC019,0.00,VWS V14.00,2013-03-01 18:43:00,
2013-03-01 13:48:00,26.2,19.4,30.11,North,360,5.0,9.0,75,0.00,,OVC019,0.00,VWS V14.00,2013-03-01 18:48:00,
2013-03-01 13:53:00,26.1,19.3,30.11,North,355,0.0,9.0,75,0.00,,OVC019,0.00,VWS V14.00,2013-03-01 18:53:00,
2013-03-01 13:58:00,26.3,19.8,30.10,NE,56,3.0,9.0,76,0.00,,OVC019,0.00,VWS V14.00,2013-03-01 18:58:00,
2013-03-01 14:03:00,26.3,19.8,30.10,North,360,4.0,8.0,76,0.00,,OVC021,0.00,VWS V14.00,2013-03-01 19:03:00,
2013-03-01 14:08:00,26.3,19.8,30.10,NNE,32,1.0,8.0,76,0.00,,OVC021,0.00,VWS V14.00,2013-03-01 19:08:00,
2013-03-01 14:13:00,26.3,19.5,30.10,North,5,5.0,8.0,75,0.00,,OVC021,0.01,VWS V14.00,2013-03-01 19:13:00,
2013-03-01 14:18:00,26.1,19.3,30.10,North,360,4.0,9.0,75,0.00,,OVC021,0.01,VWS V14.00,2013-03-01 19:18:00,
2013-03-01 14:23:00,25.8,19.0,30.10,NE,42,0.0,9.0,75,0.00,,OVC021,0.01,VWS V14.00,2013-03-01 19:23:00,
2013-03-01 14:28:00,26.0,19.2,30.10,NNE,17,3.0,9.0,75,0.00,,OVC021,0.01,VWS V14.00,2013-03-01 19:28:00,
2013-03-01 14:34:00,26.1,19.0,30.10,North,9,0.0,7.0,74,0.00,,OVC021,0.01,VWS V14.00,2013-03-01 19:34:00,
2013-03-01 14:39:00,26.4,19.6,30.10,NW,321,5.0,7.0,75,0.00,,OVC021,0.01,VWS V14.00,2013-03-01 19:39:00,
2013-03-01 14:44:00,26.4,18.9,30.10,NNE,25,2.0,11.0,73,0.00,,OVC021,0.01,VWS V14.00,2013-03-01 19:44:00,
2013-03-01 14:49:00,26.5,19.4,30.09,NNE,22,6.0,11.0,74,0.00,,OVC021,0.01,VWS V14.00,2013-03-01 19:49:00,
2013-03-01 14:54:00,27.0,19.5,30.09,NNE,22,4.0,11.0,73,0.00,,OVC021,0.01,VWS V14.00,2013-03-01 19:54:00,
2013-03-01 14:59:00,27.0,19.5,30.09,NE,35,7.0,11.0,73,0.00,,OVC021,0.01,VWS V14.00,2013-03-01 19:59:00,
2013-03-01 15:04:00,27.0,19.5,30.09,NNE,30,0.0,7.0,73,0.00,,OVC021,0.01,VWS V14.00,2013-03-01 20:04:00,
2013-03-01 15:09:00,27.3,19.8,30.10,NE,36,1.0,7.0,73,0.00,,OVC021,0.01,VWS V14.00,2013-03-01 20:09:00,
2013-03-01 15:14:00,27.2,19.7,30.10,NNW,344,2.0,9.0,73,0.00,,OVC021,0.01,VWS V14.00,2013-03-01 20:14:00,
2013-03-01 15:19:00,27.4,19.9,30.09,North,355,2.0,9.0,73,0.00,,OVC021,0.01,VWS V14.00,2013-03-01 20:19:00,
2013-03-01 15:24:00,27.5,19.7,30.10,North,5,0.0,9.0,72,0.00,,OVC021,0.01,VWS V14.00,2013-03-01 20:24:00,
2013-03-01 15:29:00,27.5,19.7,30.10,NE,44,6.0,9.0,72,0.00,,OVC021,0.01,VWS V14.00,2013-03-01 20:29:00,
2013-03-01 15:34:00,27.3,19.5,30.10,NE,49,1.0,6.0,72,0.00,,OVC021,0.01,VWS V14.00,2013-03-01 20:34:00,
2013-03-01 15:39:00,27.3,19.5,30.10,NE,40,0.0,8.0,72,0.00,,OVC021,0.01,VWS V14.00,2013-03-01 20:39:00,
2013-03-01 15:44:00,27.7,20.2,30.10,NE,41,0.0,8.0,73,0.00,,OVC021,0.01,VWS V14.00,2013-03-01 20:44:00,
2013-03-01 15:49:00,28.1,20.2,30.09,NNE,24,1.0,8.0,72,0.00,,OVC021,0.01,VWS V14.00,2013-03-01 20:49:00,
2013-03-01 15:55:00,28.0,19.8,30.10,ENE,61,2.0,8.0,71,0.00,,OVC021,0.01,VWS V14.00,2013-03-01 20:55:00,
2013-03-01 16:00:00,27.8,20.3,30.10,NE,45,1.0,8.0,73,0.00,,OVC021,0.01,VWS V14.00,2013-03-01 21:00:00,
2013-03-01 16:05:00,27.8,20.0,30.10,NNE,24,1.0,5.0,72,0.00,,OVC021,0.01,VWS V14.00,2013-03-01 21:05:00,
2013-03-01 16:10:00,27.7,19.9,30.10,ENE,64,1.0,6.0,72,0.00,,OVC021,0.01,VWS V14.00,2013-03-01 21:10:00,
2013-03-01 16:15:00,27.6,19.8,30.10,ENE,60,0.0,6.0,72,0.00,,OVC021,0.01,VWS V14.00,2013-03-01 21:15:00,
2013-03-01 16:20:00,27.5,20.0,30.10,NE,49,5.0,8.0,73,0.00,,OVC021,0.01,VWS V14.00,2013-03-01 21:20:00,
2013-03-01 16:25:00,27.4,19.6,30.10,North,360,0.0,8.0,72,0.00,,OVC021,0.01,VWS V14.00,2013-03-01 21:25:00,
2013-03-01 16:30:00,27.4,19.6,30.10,NNE,23,4.0,4.0,72,0.00,,OVC021,0.01,VWS V14.00,2013-03-01 21:30:00,
2013-03-01 16:35:00,27.4,19.6,30.10,NE,55,2.0,5.0,72,0.00,,OVC021,0.01,VWS V14.00,2013-03-01 21:35:00,
2013-03-01 16:40:00,27.5,19.7,30.10,NNE,18,0.0,5.0,72,0.00,,OVC021,0.01,VWS V14.00,2013-03-01 21:40:00,
2013-03-01 16:45:00,27.6,19.8,30.10,NNE,30,0.0,5.0,72,0.00,,OVC021,0.01,VWS V14.00,2013-03-01 21:45:00,
2013-03-01 16:50:00,27.8,20.0,30.10,NE,49,3.0,5.0,72,0.00,,OVC021,0.01,VWS V14.00,2013-03-01 21:50:00,
2013-03-01 16:55:00,27.8,20.0,30.10,NE,48,3.0,5.0,72,0.00,,OVC021,0.01,VWS V14.00,2013-03-01 21:55:00,
2013-03-01 17:00:00,27.9,20.1,30.10,NNE,25,3.0,4.0,72,0.00,,BKN024,0.01,VWS V14.00,2013-03-01 22:00:00,
2013-03-01 17:05:00,27.8,20.0,30.10,SSW,202,2.0,5.0,72,0.00,,BKN024,0.01,VWS V14.00,2013-03-01 22:05:00,
2013-03-01 17:11:00,27.8,20.0,30.10,NNE,28,3.0,6.0,72,0.00,,BKN024,0.01,VWS V14.00,2013-03-01 22:11:00,
2013-03-01 17:16:00,27.8,20.0,30.10,NNE,17,0.0,6.0,72,0.00,,BKN024,0.01,VWS V14.00,2013-03-01 22:16:00,
2013-03-01 17:21:00,27.9,20.1,30.10,North,5,6.0,7.0,72,0.00,,BKN024,0.01,VWS V14.00,2013-03-01 22:21:00,
2013-03-01 17:26:00,27.7,19.9,30.10,NNE,31,2.0,7.0,72,0.00,,BKN024,0.01,VWS V14.00,2013-03-01 22:26:00,
2013-03-01 17:31:00,27.6,19.8,30.10,NNE,25,1.0,5.0,72,0.00,,BKN024,0.01,VWS V14.00,2013-03-01 22:31:00,
2013-03-01 17:36:00,27.6,19.8,30.10,NNE,24,0.0,7.0,72,0.00,,BKN024,0.01,VWS V14.00,2013-03-01 22:36:00,
2013-03-01 17:41:00,27.7,19.9,30.10,NNE,28,0.0,7.0,72,0.00,,BKN024,0.01,VWS V14.00,2013-03-01 22:41:00,
2013-03-01 17:46:00,27.6,19.4,30.11,North,360,1.0,7.0,71,0.00,,BKN024,0.01,VWS V14.00,2013-03-01 22:46:00,
2013-03-01 17:51:00,27.5,19.4,30.10,NE,39,4.0,8.0,71,0.00,,BKN024,0.01,VWS V14.00,2013-03-01 22:51:00,
2013-03-01 17:56:00,27.4,19.6,30.10,NNE,13,4.0,8.0,72,0.00,,BKN024,0.01,VWS V14.00,2013-03-01 22:56:00,
2013-03-01 18:02:00,27.2,19.1,30.11,NNW,348,3.0,5.0,71,0.00,,BKN220,0.01,VWS V14.00,2013-03-01 23:02:00,
2013-03-01 18:07:00,27.1,19.0,30.11,NNE,31,3.0,8.0,71,0.00,,BKN220,0.01,VWS V14.00,2013-03-01 23:07:00,
2013-03-01 18:12:00,27.0,18.9,30.11,North,11,3.0,8.0,71,0.00,,BKN220,0.01,VWS V14.00,2013-03-01 23:12:00,
2013-03-01 18:17:00,26.9,18.8,30.11,NNE,25,0.0,8.0,71,0.00,,BKN220,0.01,VWS V14.00,2013-03-01 23:17:00,
2013-03-01 18:22:00,26.7,18.6,30.11,NNE,33,0.0,8.0,71,0.00,,BKN220,0.01,VWS V14.00,2013-03-01 23:22:00,
2013-03-01 18:27:00,26.5,18.7,30.11,NNE,33,0.0,8.0,72,0.00,,BKN220,0.01,VWS V14.00,2013-03-01 23:27:00,
2013-03-01 18:32:00,26.3,18.5,30.11,NNE,33,0.0,2.0,72,0.00,,BKN220,0.01,VWS V14.00,2013-03-01 23:32:00,
2013-03-01 18:37:00,26.2,18.4,30.11,NNE,33,0.0,4.0,72,0.00,,BKN220,0.01,VWS V14.00,2013-03-01 23:37:00,
2013-03-01 18:42:00,26.0,18.2,30.11,NNE,33,0.0,4.0,72,0.00,,BKN220,0.01,VWS V14.00,2013-03-01 23:42:00,
2013-03-01 18:47:00,25.9,18.5,30.11,NNE,33,0.0,4.0,73,0.00,,BKN220,0.01,VWS V14.00,2013-03-01 23:47:00,
2013-03-01 18:52:00,25.7,18.3,30.11,NNE,33,0.0,4.0,73,0.00,,BKN220,0.01,VWS V14.00,2013-03-01 23:52:00,
2013-03-01 18:57:00,25.5,18.1,30.11,NNE,33,0.0,4.0,73,0.00,,BKN220,0.01,VWS V14.00,2013-03-01 23:57:00,
2013-03-01 19:03:00,25.3,18.2,30.11,NNE,33,0.0,0.0,74,0.00,,BKN250,0.01,VWS V14.00,2013-03-02 00:03:00,
2013-03-01 19:08:00,25.2,18.1,30.11,NNE,33,0.0,0.0,74,0.00,,BKN250,0.01,VWS V14.00,2013-03-02 00:08:00,
2013-03-01 19:13:00,25.0,18.2,30.11,NNE,33,0.0,0.0,75,0.00,,BKN250,0.01,VWS V14.00,2013-03-02 00:13:00,
2013-03-01 19:18:00,24.7,17.9,30.12,NNE,33,0.0,0.0,75,0.00,,BKN250,0.01,VWS V14.00,2013-03-02 00:18:00,
2013-03-01 19:23:00,24.3,17.8,30.12,NNE,33,0.0,0.0,76,0.00,,BKN250,0.01,VWS V14.00,2013-03-02 00:23:00,
2013-03-01 19:28:00,23.9,17.8,30.12,NNE,33,0.0,0.0,77,0.00,,BKN250,0.01,VWS V14.00,2013-03-02 00:28:00,
2013-03-01 19:33:00,23.6,17.8,30.12,NNE,33,0.0,0.0,78,0.00,,SCT250,0.01,VWS V14.00,2013-03-02 00:33:00,
2013-03-01 19:38:00,23.3,17.8,30.12,NNE,33,0.0,0.0,79,0.00,,SCT250,0.01,VWS V14.00,2013-03-02 00:38:00,
2013-03-01 19:43:00,23.1,17.9,30.12,NNE,33,0.0,0.0,80,0.00,,SCT250,0.01,VWS V14.00,2013-03-02 00:43:00,
2013-03-01 19:48:00,22.7,17.5,30.12,NNE,33,0.0,0.0,80,0.00,,SCT250,0.01,VWS V14.00,2013-03-02 00:48:00,
2013-03-01 19:53:00,22.4,17.5,30.12,NNE,33,0.0,0.0,81,0.00,,SCT250,0.01,VWS V14.00,2013-03-02 00:53:00,
2013-03-01 19:58:00,22.1,17.5,30.12,NNE,33,0.0,0.0,82,0.00,,SCT250,0.01,VWS V14.00,2013-03-02 00:58:00,
2013-03-01 20:03:00,21.8,17.2,30.13,NNE,33,0.0,0.0,82,0.00,,SCT250,0.01,VWS V14.00,2013-03-02 01:03:00,
2013-03-01 20:08:00,21.6,17.2,30.13,NNE,33,0.0,0.0,83,0.00,,SCT250,0.01,VWS V14.00,2013-03-02 01:08:00,
2013-03-01 20:13:00,21.6,17.2,30.13,NNE,33,0.0,1.0,83,0.00,,SCT250,0.01,VWS V14.00,2013-03-02 01:13:00,
2013-03-01 20:18:00,21.7,17.3,30.13,NNE,33,0.0,2.0,83,0.00,,SCT250,0.01,VWS V14.00,2013-03-02 01:18:00,
2013-03-01 20:23:00,22.1,17.5,30.13,NNE,33,1.0,3.0,82,0.00,,SCT250,0.01,VWS V14.00,2013-03-02 01:23:00,
2013-03-01 20:28:00,22.3,17.6,30.13,NNE,33,0.0,3.0,82,0.00,,SCT250,0.01,VWS V14.00,2013-03-02 01:28:00,
2013-03-01 20:33:00,22.4,17.8,30.13,NNE,33,1.0,2.0,82,0.00,,SCT250,0.01,VWS V14.00,2013-03-02 01:33:00,
2013-03-01 20:38:00,22.4,17.5,30.14,NNE,25,3.0,4.0,81,0.00,,SCT250,0.01,VWS V14.00,2013-03-02 01:38:00,
2013-03-01 20:44:00,22.8,17.6,30.14,NNE,17,5.0,8.0,80,0.00,,SCT250,0.01,VWS V14.00,2013-03-02 01:44:00,
2013-03-01 20:49:00,23.3,17.8,30.14,NNE,28,3.0,8.0,79,0.00,,SCT250,0.01,VWS V14.00,2013-03-02 01:49:00,
2013-03-01 20:54:00,23.7,17.6,30.14,NE,37,4.0,8.0,77,0.00,,SCT250,0.01,VWS V14.00,2013-03-02 01:54:00,
2013-03-01 20:59:00,23.9,17.8,30.14,NNE,13,2.0,10.0,77,0.00,,SCT250,0.01,VWS V14.00,2013-03-02 01:59:00,
2013-03-01 21:04:00,23.9,17.8,30.14,NE,40,3.0,10.0,77,0.00,,SCT250,0.01,VWS V14.00,2013-03-02 02:04:00,
2013-03-01 21:09:00,23.8,17.7,30.14,North,355,9.0,12.0,77,0.00,,SCT250,0.01,VWS V14.00,2013-03-02 02:09:00,
2013-03-01 21:14:00,23.6,17.5,30.14,NNE,30,5.0,12.0,77,0.00,,SCT250,0.01,VWS V14.00,2013-03-02 02:14:00,
2013-03-01 21:19:00,23.4,17.6,30.15,NNW,348,3.0,12.0,78,0.00,,SCT250,0.01,VWS V14.00,2013-03-02 02:19:00,
2013-03-01 21:24:00,23.2,17.4,30.15,NNE,19,5.0,12.0,78,0.00,,SCT250,0.01,VWS V14.00,2013-03-02 02:24:00,
2013-03-01 21:29:00,23.0,17.2,30.15,NNE,30,6.0,12.0,78,0.00,,SCT250,0.01,VWS V14.00,2013-03-02 02:29:00,
2013-03-01 21:34:00,22.8,17.0,30.15,North,9,7.0,9.0,78,0.00,,SCT250,0.01,VWS V14.00,2013-03-02 02:34:00,
2013-03-01 21:39:00,22.7,17.2,30.15,North,360,0.0,9.0,79,0.00,,SCT250,0.01,VWS V14.00,2013-03-02 02:39:00,
2013-03-01 21:44:00,22.5,17.0,30.15,NNE,15,3.0,9.0,79,0.00,,SCT250,0.01,VWS V14.00,2013-03-02 02:44:00,
2013-03-01 21:49:00,22.2,17.0,30.15,NNE,13,2.0,10.0,80,0.00,,SCT250,0.01,VWS V14.00,2013-03-02 02:49:00,
2013-03-01 21:54:00,22.0,16.8,30.15,NNE,15,0.0,10.0,80,0.00,,SCT250,0.01,VWS V14.00,2013-03-02 02:54:00,
2013-03-01 21:59:00,21.8,16.6,30.15,North,11,4.0,10.0,80,0.00,,SCT250,0.01,VWS V14.00,2013-03-02 02:59:00,
2013-03-01 22:04:00,21.7,16.8,30.15,NNE,18,5.0,7.0,81,0.00,,SCT250,0.01,VWS V14.00,2013-03-02 03:04:00,
2013-03-01 22:09:00,21.6,16.7,30.15,North,355,4.0,7.0,81,0.00,,SCT250,0.01,VWS V14.00,2013-03-02 03:09:00,
2013-03-01 22:14:00,21.5,16.6,30.15,NE,36,5.0,7.0,81,0.00,,SCT250,0.01,VWS V14.00,2013-03-02 03:14:00,
2013-03-01 22:19:00,21.4,16.5,30.15,NNE,22,7.0,9.0,81,0.00,,SCT250,0.01,VWS V14.00,2013-03-02 03:19:00,
2013-03-01 22:24:00,21.4,16.5,30.15,NNE,30,7.0,9.0,81,0.00,,SCT250,0.01,VWS V14.00,2013-03-02 03:24:00,
2013-03-01 22:29:00,21.3,16.4,30.15,North,9,2.0,9.0,81,0.00,,SCT250,0.01,VWS V14.00,2013-03-02 03:29:00,
2013-03-01 22:34:00,21.2,16.3,30.15,North,355,4.0,6.0,81,0.00,,SCT250,0.01,VWS V14.00,2013-03-02 03:34:00,
2013-03-01 22:39:00,21.1,16.2,30.15,NNE,26,3.0,7.0,81,0.00,,SCT250,0.01,VWS V14.00,2013-03-02 03:39:00,
2013-03-01 22:44:00,21.0,16.1,30.15,North,355,5.0,7.0,81,0.00,,SCT250,0.01,VWS V14.00,2013-03-02 03:44:00,
2013-03-01 22:49:00,21.0,16.1,30.15,NNE,26,3.0,7.0,81,0.00,,SCT250,0.01,VWS V14.00,2013-03-02 03:49:00,
2013-03-01 22:54:00,21.0,16.1,30.15,NNE,29,2.0,7.0,81,0.00,,SCT250,0.01,VWS V14.00,2013-03-02 03:54:00,
2013-03-01 22:59:00,21.0,16.1,30.15,NE,34,4.0,7.0,81,0.00,,SCT250,0.01,VWS V14.00,2013-03-02 03:59:00,
2013-03-01 23:04:00,20.9,15.7,30.15,NNE,29,2.0,5.0,80,0.00,,BKN250,0.01,VWS V14.00,2013-03-02 04:04:00,
2013-03-01 23:09:00,20.9,16.0,30.15,NNE,22,3.0,7.0,81,0.00,,BKN250,0.01,VWS V14.00,2013-03-02 04:09:00,
2013-03-01 23:14:00,20.9,15.7,30.15,North,5,4.0,7.0,80,0.00,,BKN250,0.01,VWS V14.00,2013-03-02 04:14:00,
2013-03-01 23:19:00,20.9,15.7,30.15,NNE,27,4.0,7.0,80,0.00,,BKN250,0.01,VWS V14.00,2013-03-02 04:19:00,
2013-03-01 23:24:00,20.8,15.6,30.15,NE,36,2.0,7.0,80,0.00,,BKN250,0.01,VWS V14.00,2013-03-02 04:24:00,
2013-03-01 23:30:00,20.8,15.6,30.15,NNE,26,3.0,8.0,80,0.00,,BKN250,0.01,VWS V14.00,2013-03-02 04:30:00,
2013-03-01 23:35:00,20.7,15.5,30.15,North,9,3.0,6.0,80,0.00,,BKN250,0.01,VWS V14.00,2013-03-02 04:35:00,
2013-03-01 23:40:00,20.6,15.4,30.15,NNE,28,1.0,6.0,80,0.00,,BKN250,0.01,VWS V14.00,2013-03-02 04:40:00,
2013-03-01 23:45:00,20.5,15.3,30.15,NE,43,1.0,6.0,80,0.00,,BKN250,0.01,VWS V14.00,2013-03-02 04:45:00,
2013-03-01 23:50:00,20.6,15.4,30.15,NNE,28,2.0,6.0,80,0.00,,BKN250,0.01,VWS V14.00,2013-03-02 04:50:00,
2013-03-01 23:55:00,20.7,15.5,30.15,NNE,22,2.0,6.0,80,0.00,,BKN250,0.01,VWS V14.00,2013-03-02 04:55:00,